Wind_Speed
22 20 18 17 16 15 14 14 13 12 11 11 10 10 9 9 10 9 8 9 8 7 6 9 11 9 8 9 7 5 4 7 4 6 9 12 16 13 14 14 11 13 19
23 20 20 18 17 16 16 15 14 14 14 13 13 12 11 10 10 11 10 9 8 7 5 7 10 7 8 8 4 4 6 6 7 8 8 11 15 13 8 10 13 13 16
26 24 22 20 18 18 17 17 16 16 16 14 14 13 12 11 10 9 9 9 8 7 5 5 7 6 6 7 2 3 6 6 4 6 6 9 13 13 8 7 9 11 8
30 27 25 21 20 20 19 18 18 18 18 17 15 15 13 12 12 10 7 8 7 6 5 5 6 6 6 4 5 5 6 7 4 5 4 5 11 12 9 12 14 10 15
30 28 26 23 21 21 20 20 20 19 20 21 18 16 15 14 15 14 13 10 7 6 5 5 5 5 5 5 6 6 6 5 4 4 4 5 12 15 15 13 14 12 14
32 30 28 24 25 23 22 23 24 23 21 19 19 17 15 13 13 12 12 12 9 8 5 3 4 4 4 5 6 6 7 8 7 7 7 10 12 14 14 13 14 15 16
33 31 28 27 26 26 24 24 24 24 22 22 18 17 16 15 14 12 10 9 7 6 4 2 2 2 3 4 4 5 7 8 9 9 10 11 12 15 16 13 14 12 16
33 31 30 29 27 25 25 24 24 24 22 20 19 18 17 16 14 12 10 9 7 6 4 2 1 1 2 3 5 6 6 7 7 7 8 9 9 10 13 14 14 10 6
34 32 30 31 28 26 26 26 25 22 20 19 19 18 18 17 15 13 11 10 7 5 4 3 2 0 3 4 4 6 7 8 8 8 8 8 10 10 13 13 13 15 15
33 32 30 32 28 28 28 26 23 21 19 16 16 15 15 17 16 14 11 10 6 6 5 4 3 2 5 6 6 7 9 9 9 9 10 13 11 10 13 13 13 14 15
29 30 31 29 31 30 24 25 25 22 20 20 19 19 21 17 16 14 13 12 12 10 8 8 4 5 6 8 9 8 8 8 8 7 6 8 10 11 14 14 14 15 15
31 32 33 32 27 24 26 26 26 24 24 24 22 22 22 21 17 16 14 13 12 13 14 15 9 9 9 10 10 9 9 8 8 6 5 7 11 12 12 13 14 14 14
33 33 28 27 29 27 27 28 28 27 26 26 25 25 22 23 20 18 16 14 14 16 15 14 11 12 11 11 11 10 10 10 9 6 6 7 11 11 9 10 11 12 10
30 29 28 28 29 23 29 29 29 29 28 28 28 28 26 25 22 19 20 17 17 17 15 14 15 14 13 14 11 11 11 11 8 7 7 7 8 8 7 12 10 10 11
30 28 29 30 32 28 28 30 31 30 30 30 31 31 30 27 24 19 17 17 17 17 16 16 15 14 13 10 10 11 10 10 8 6 8 7 8 9 10 13 10 10 12
30 30 31 32 32 32 33 32 32 32 32 30 30 31 27 23 21 18 17 17 18 17 18 17 15 13 11 10 10 12 14 14 12 11 13 9 10 12 12 13 9 12 14
28 30 31 31 31 36 36 36 34 34 36 33 34 31 27 24 23 22 21 19 20 21 20 19 17 15 14 15 15 14 14 14 16 17 18 19 12 12 13 13 12 14 17
25 26 28 30 29 30 34 34 35 35 36 37 36 34 32 30 26 25 23 22 24 26 25 24 22 18 19 18 17 16 16 16 18 17 16 11 12 14 15 14 14 17 20
22 22 24 24 25 24 24 24 25 25 24 25 28 34 34 32 30 29 28 30 30 30 28 25 23 20 19 19 19 18 18 18 18 18 17 16 16 17 16 13 16 20 22
24 25 25 25 26 26 25 25 25 24 25 24 24 26 25 31 36 37 36 35 33 32 30 26 22 20 19 19 19 18 19 19 19 20 18 17 15 13 14 17 20 22 24
25 25 24 24 24 24 25 25 24 23 24 25 25 25 28 26 26 30 36 37 35 32 30 28 25 24 22 21 21 20 19 20 20 18 18 17 15 18 20 21 22 25 26
18 21 20 22 20 19 20 20 21 22 24 25 25 25 27 29 28 27 27 28 28 25 23 22 22 23 25 26 25 23 22 21 20 19 19 20 20 21 22 24 27 26 28
15 13 14 14 15 19 21 22 23 24 25 26 26 25 26 27 28 27 26 24 23 23 22 22 22 23 25 26 25 25 24 22 19 20 21 22 24 25 27 29 28 30 30
12 12 13 14 14 15 15 18 21 22 24 24 26 27 27 26 27 27 25 25 28 28 27 27 25 26 26 27 26 26 24 23 23 23 25 26 28 29 29 29 30 30 29
8 11 11 11 14 17 16 16 20 21 20 23 24 22 22 23 26 25 24 23 22 22 24 26 27 26 26 26 26 27 27 26 23 22 23 24 25 27 28 30 29 26 23
10 12 11 11 12 12 14 14 15 16 16 16 17 19 20 22 23 24 24 23 22 21 21 22 23 26 27 26 27 28 27 25 23 23 23 24 25 27 28 27 26 25 26
Wind_Direction
200 196 194 194 197 198 195 196 200 187 181 173 166 153 144 137 139 133 120 113 107 98 82 101 83 85 55 77 63 47 48 37 25 40 356 346 338 8 27 26 20 356 328
203 198 200 198 198 195 197 193 194 183 176 175 169 160 154 152 146 144 150 137 129 121 125 115 122 119 117 84 64 66 72 34 13 18 356 348 333 356 34 32 12 35 338
205 203 203 200 198 197 194 195 185 184 178 174 170 165 163 158 153 151 147 147 145 147 142 113 103 97 108 116 93 101 108 80 15 25 343 338 324 354 26 36 22 46 348
207 207 208 204 198 198 194 190 185 185 179 174 180 180 173 169 160 150 157 152 148 146 121 101 94 88 87 77 67 54 95 110 107 59 324 340 328 4 24 34 22 47 349
209 206 206 201 195 199 194 187 185 188 184 188 188 179 177 177 175 171 172 168 159 144 127 113 95 88 80 72 64 56 53 49 73 102 348 349 357 11 21 35 12 33 345
208 205 207 200 195 200 197 190 190 192 193 187 187 192 192 187 185 190 184 180 171 163 146 110 94 76 64 45 35 37 33 36 29 27 10 10 5 9 14 22 9 16 5
204 201 204 201 196 203 198 194 192 194 190 192 194 192 191 190 189 192 194 183 172 165 151 137 97 74 49 37 24 19 22 15 13 8 6 3 3 5 7 8 13 14 351
207 200 200 198 191 202 196 190 192 193 194 194 194 194 194 194 191 192 192 188 182 176 172 171 196 78 34 8 1 356 352 0 357 357 355 353 351 352 9 4 360 4 340
206 198 197 200 191 195 191 192 194 190 194 192 196 197 199 197 195 195 197 191 187 190 191 208 237 324 347 338 339 331 332 349 353 347 340 338 339 360 4 356 1 358 0
201 199 196 201 189 193 192 195 188 191 191 190 197 198 212 198 199 199 204 193 238 215 210 214 252 300 325 325 319 322 328 330 335 344 353 359 360 345 343 353 356 359 359
205 197 194 200 190 200 187 193 189 189 185 190 199 193 212 213 204 203 202 204 188 232 260 273 245 285 309 307 307 305 301 306 316 344 352 325 327 325 336 352 0 5 6
197 198 199 204 206 188 191 195 193 190 190 197 201 201 214 221 204 208 211 213 215 214 224 245 269 280 291 293 292 285 282 287 293 300 309 299 311 320 341 348 353 358 352
208 208 209 207 195 190 195 196 197 194 196 201 206 208 216 218 218 210 218 223 223 226 236 252 263 267 276 282 285 277 270 272 275 279 280 289 306 325 345 319 335 345 358
217 214 211 206 189 194 206 202 201 199 203 205 209 212 217 222 228 219 222 230 235 242 247 253 263 270 277 282 281 281 272 271 272 261 263 277 304 306 308 304 325 335 331
217 215 208 199 193 196 203 208 210 210 210 212 217 222 223 228 238 237 238 239 244 248 249 255 258 264 271 272 291 306 309 301 272 278 277 267 276 284 295 297 315 324 322
213 212 209 205 203 202 210 210 214 217 220 220 228 235 239 242 243 247 243 244 248 245 251 256 264 271 275 272 267 273 287 289 290 261 262 264 270 278 287 302 321 318 315
212 213 213 212 209 210 216 220 222 220 225 228 232 238 240 242 243 246 251 253 256 258 255 256 257 255 256 261 262 262 262 269 270 275 281 281 266 280 287 299 308 307 308
214 218 216 211 214 217 223 226 232 233 234 233 234 237 240 243 243 247 250 250 244 252 252 252 252 250 252 251 253 259 263 264 271 275 284 276 266 274 285 294 301 306 308
203 205 210 213 217 223 224 228 233 239 245 245 245 241 241 243 245 247 249 251 251 252 255 255 255 252 246 248 253 259 260 262 263 270 271 266 260 266 277 288 296 299 302
205 207 209 214 216 219 225 229 233 236 240 246 252 255 248 239 240 242 243 247 248 249 254 259 257 255 254 252 251 257 261 262 265 266 268 269 265 270 278 283 289 295 298
203 211 217 226 228 232 232 232 234 237 240 241 244 248 258 258 256 251 247 247 250 251 252 251 250 255 256 255 252 253 260 262 265 269 268 266 267 265 274 279 283 292 295
206 216 223 223 226 233 238 239 239 239 241 246 246 247 251 258 260 258 257 256 255 256 258 258 255 246 248 255 252 256 263 262 262 263 263 260 261 264 265 270 285 288 292
207 216 227 236 239 235 237 246 249 249 249 248 250 249 244 247 254 259 260 260 260 263 263 259 256 252 253 252 256 257 258 257 259 260 257 251 251 258 269 282 289 292 293
212 223 230 241 253 256 254 251 255 256 253 254 254 253 249 249 250 253 253 257 256 256 257 259 258 258 256 255 257 258 255 251 254 257 256 253 259 271 280 288 292 293 292
216 237 250 248 241 254 264 258 255 260 259 250 250 251 252 248 251 257 261 260 259 258 256 254 254 256 254 254 255 252 251 249 256 266 267 266 269 278 286 290 293 293 291
245 258 264 262 261 259 266 268 266 264 262 259 255 252 251 254 256 258 260 262 262 259 254 253 255 250 250 250 251 250 249 251 261 268 270 272 278 284 287 287 286 283 283
Height
1477 1479 1479 1480 1481 1483 1485 1487 1490 1490 1491 1495 1498 1498 1499 1499 1501 1501 1504 1503 1504 1504 1504 1503 1504 1503 1502 1502 1504 1504 1504 1504 1504 1504 1503 1500 1496 1493 1491 1490 1488 1486 1480
1473 1475 1476 1476 1478 1480 1482 1486 1486 1488 1490 1493 1496 1497 1498 1500 1500 1502 1504 1504 1503 1504 1504 1502 1501 1501 1501 1502 1503 1503 1503 1504 1504 1503 1502 1499 1494 1492 1490 1489 1487 1486 1482
1467 1471 1471 1473 1475 1477 1480 1482 1484 1486 1489 1492 1494 1496 1497 1498 1500 1502 1503 1503 1502 1503 1502 1501 1501 1500 1500 1500 1500 1501 1501 1502 1502 1502 1501 1498 1494 1490 1488 1486 1485 1484 1483
1461 1465 1467 1470 1472 1475 1477 1479 1481 1484 1487 1490 1492 1493 1495 1497 1499 1502 1503 1502 1501 1502 1502 1501 1500 1500 1500 1500 1500 1500 1499 1499 1500 1500 1498 1496 1492 1490 1487 1484 1483 1482 1479
1458 1461 1463 1467 1470 1472 1474 1476 1479 1482 1485 1487 1489 1491 1493 1496 1498 1500 1501 1501 1500 1501 1500 1500 1500 1500 1500 1500 1500 1499 1499 1497 1497 1496 1495 1493 1490 1488 1485 1484 1483 1482 1480
1453 1456 1460 1463 1466 1468 1471 1473 1476 1479 1482 1485 1486 1488 1491 1495 1497 1498 1498 1499 1499 1499 1499 1499 1499 1499 1499 1499 1499 1498 1498 1496 1495 1494 1492 1491 1489 1488 1486 1483 1481 1479 1478
1448 1452 1455 1458 1462 1464 1467 1470 1473 1476 1479 1480 1483 1487 1490 1493 1495 1496 1497 1498 1498 1498 1498 1498 1499 1499 1499 1499 1498 1497 1496 1495 1495 1493 1492 1490 1488 1486 1484 1482 1480 1479 1478
1443 1447 1451 1454 1458 1461 1464 1467 1471 1473 1475 1478 1481 1485 1488 1491 1493 1495 1496 1496 1496 1497 1497 1497 1498 1498 1498 1497 1497 1496 1495 1495 1494 1493 1491 1490 1489 1487 1484 1482 1480 1479 1478
1438 1443 1447 1450 1456 1459 1462 1465 1468 1470 1472 1475 1479 1482 1485 1488 1490 1492 1494 1494 1495 1495 1495 1496 1496 1497 1496 1495 1495 1494 1493 1492 1492 1491 1490 1489 1487 1485 1483 1482 1479 1476 1474
1434 1440 1444 1447 1452 1456 1459 1463 1467 1469 1471 1474 1477 1480 1482 1485 1487 1490 1491 1491 1491 1493 1493 1494 1494 1494 1494 1493 1493 1491 1491 1490 1490 1489 1487 1486 1486 1485 1482 1481 1478 1476 1474
1432 1437 1440 1444 1448 1451 1456 1461 1465 1467 1470 1473 1476 1480 1480 1482 1485 1487 1488 1489 1490 1491 1490 1489 1491 1492 1491 1491 1490 1490 1490 1489 1488 1487 1487 1486 1485 1483 1481 1479 1477 1476 1474
1428 1431 1435 1440 1445 1449 1455 1459 1462 1465 1468 1470 1474 1477 1478 1478 1481 1483 1485 1486 1487 1488 1488 1487 1488 1489 1489 1488 1488 1487 1487 1486 1486 1485 1485 1485 1484 1482 1480 1478 1477 1476 1474
1424 1429 1434 1437 1442 1447 1452 1455 1458 1461 1464 1467 1470 1472 1474 1475 1477 1479 1481 1483 1484 1484 1484 1485 1486 1486 1486 1485 1484 1484 1484 1483 1483 1483 1483 1482 1482 1481 1480 1478 1477 1476 1474
1422 1426 1430 1435 1440 1445 1449 1452 1455 1458 1461 1463 1466 1467 1470 1470 1472 1475 1477 1479 1480 1480 1481 1481 1481 1482 1482 1481 1481 1480 1480 1480 1480 1480 1480 1480 1480 1479 1478 1477 1475 1474 1473
1419 1423 1427 1431 1436 1441 1445 1449 1451 1454 1457 1459 1461 1463 1464 1466 1467 1472 1474 1475 1476 1477 1478 1477 1477 1477 1477 1477 1477 1476 1477 1477 1477 1477 1477 1477 1477 1477 1476 1474 1473 1472 1471
1415 1419 1423 1427 1432 1437 1441 1444 1447 1451 1454 1456 1458 1460 1462 1464 1465 1467 1469 1471 1472 1473 1472 1472 1472 1472 1473 1474 1474 1474 1473 1474 1474 1474 1474 1474 1474 1473 1473 1472 1471 1470 1468
1411 1415 1419 1424 1428 1432 1436 1439 1442 1446 1448 1451 1454 1456 1458 1460 1460 1462 1464 1466 1466 1466 1466 1467 1468 1468 1469 1470 1471 1471 1471 1471 1471 1471 1471 1471 1470 1470 1469 1468 1467 1466 1464
1408 1412 1415 1419 1423 1428 1431 1434 1437 1440 1443 1445 1448 1450 1452 1453 1455 1457 1459 1460 1459 1458 1459 1461 1462 1463 1464 1465 1466 1466 1467 1467 1466 1467 1467 1466 1466 1466 1466 1465 1464 1462 1460
1406 1410 1413 1417 1420 1424 1427 1430 1433 1435 1437 1439 1441 1443 1445 1447 1449 1450 1452 1451 1451 1452 1453 1454 1456 1457 1458 1459 1460 1461 1462 1462 1462 1462 1462 1462 1462 1462 1462 1461 1460 1459 1457
1405 1408 1411 1416 1419 1421 1424 1426 1428 1431 1432 1433 1433 1434 1437 1439 1439 1440 1441 1442 1443 1445 1446 1447 1449 1450 1451 1453 1454 1455 1455 1456 1457 1457 1457 1457 1457 1457 1457 1456 1455 1453 1451
1402 1405 1409 1412 1416 1418 1420 1421 1423 1424 1426 1427 1428 1429 1428 1431 1432 1433 1434 1435 1436 1438 1440 1441 1443 1443 1444 1446 1447 1448 1449 1450 1450 1451 1451 1451 1452 1452 1452 1451 1449 1448 1445
1401 1403 1406 1408 1411 1413 1415 1416 1418 1419 1420 1422 1423 1424 1424 1424 1425 1426 1427 1429 1430 1432 1434 1435 1436 1437 1438 1439 1440 1441 1443 1444 1444 1445 1445 1446 1446 1446 1445 1444 1443 1441 1438
1400 1402 1403 1405 1407 1409 1411 1412 1413 1414 1415 1417 1417 1418 1419 1418 1419 1420 1421 1423 1424 1426 1427 1428 1430 1431 1431 1433 1434 1435 1436 1437 1438 1439 1439 1439 1439 1439 1438 1437 1435 1433 1430
1399 1401 1402 1403 1404 1405 1406 1407 1407 1408 1409 1410 1411 1412 1413 1413 1414 1415 1417 1419 1420 1420 1421 1422 1423 1424 1425 1426 1427 1428 1430 1430 1431 1431 1432 1433 1433 1433 1431 1429 1427 1424 1421
1397 1399 1399 1400 1401 1401 1401 1402 1402 1402 1403 1403 1404 1405 1407 1408 1408 1409 1411 1412 1413 1413 1414 1415 1416 1417 1418 1419 1420 1421 1422 1423 1425 1425 1426 1426 1425 1424 1423 1420 1418 1415 1413
1395 1396 1396 1396 1396 1397 1397 1397 1397 1397 1397 1398 1399 1400 1401 1402 1403 1403 1404 1405 1405 1406 1407 1408 1409 1409 1410 1413 1413 1414 1416 1418 1419 1419 1418 1418 1417 1416 1414 1412 1409 1407 1406